Theta_e
288 288 288 288 288 288 287 288 288 288 288 288 288 287 287 288 289 292 295 297 296 296 296 295 295 296 296 296 297 296 296 296 296 296 296 296 296 297 297 298 298 298 296
287 287 287 287 287 287 287 287 286 286 287 287 287 287 287 286 286 286 287 288 289 294 297 296 295 295 294 294 295 295 296 295 295 295 295 295 296 296 296 297 297 297 297
288 288 288 287 287 287 286 286 286 286 286 286 286 286 287 287 286 286 286 286 286 287 288 290 296 295 295 293 293 294 294 294 294 294 294 295 295 296 296 296 296 297 296
288 288 288 288 288 287 287 287 286 286 286 286 286 286 286 286 286 286 286 286 286 286 285 286 287 289 295 295 294 292 292 293 293 293 294 294 294 294 295 295 295 296 296
288 288 288 288 288 287 287 286 286 285 285 285 285 285 285 285 285 285 285 285 286 286 286 285 285 285 286 288 294 294 292 291 292 292 293 292 293 293 293 294 294 295 295
288 288 288 287 287 286 285 285 285 285 284 284 284 284 284 284 284 284 284 283 284 285 285 286 285 285 285 285 285 289 293 291 290 291 291 291 292 292 292 293 293 294 293
287 287 286 285 284 284 283 283 283 282 283 283 283 282 282 283 283 282 282 281 282 283 283 284 285 285 285 285 285 285 285 291 291 290 290 290 291 291 291 291 292 292 293
286 285 282 281 281 280 280 280 280 279 279 280 280 281 281 282 282 281 279 279 279 280 281 281 282 283 284 285 285 285 285 285 286 292 291 290 290 290 290 290 291 292 292
283 282 281 280 279 278 278 278 277 277 277 277 277 276 276 277 277 277 277 277 276 277 278 279 280 280 282 283 284 284 285 285 285 285 290 292 291 289 289 289 289 288 288
282 281 280 279 278 277 277 276 275 274 274 273 274 273 272 272 272 273 273 274 274 274 275 276 277 279 281 282 284 283 284 285 284 284 285 288 292 291 289 289 289 288 288
280 280 279 278 277 277 275 274 272 271 270 269 269 269 269 269 269 269 271 272 273 273 274 275 276 278 280 282 284 284 284 284 284 285 285 286 289 290 290 289 289 287 287
279 278 278 277 276 275 273 272 270 269 268 268 268 268 268 268 267 268 269 270 271 272 273 273 274 276 278 281 282 284 285 285 286 286 286 286 287 288 289 289 289 289 287
278 277 277 276 275 273 272 270 269 268 267 266 265 265 266 267 268 268 268 268 269 270 270 271 273 274 275 278 282 283 284 285 286 286 287 287 287 288 287 287 287 288 288
277 276 276 275 273 272 270 269 267 268 266 265 265 266 267 267 268 268 269 269 270 271 272 272 272 272 274 275 278 282 284 285 285 286 286 287 287 286 286 286 286 287 286
276 276 275 273 272 270 268 268 267 268 265 266 267 268 268 269 269 270 272 272 272 272 273 273 273 273 274 274 279 282 283 283 283 283 286 287 287 286 286 285 285 285 285
276 275 274 273 271 268 267 267 270 268 266 267 268 269 269 269 270 271 272 273 273 273 273 273 273 273 273 274 275 280 280 281 281 283 285 286 286 286 285 284 284 284 284
274 274 273 272 270 268 268 267 266 271 270 268 267 268 269 270 271 272 273 273 274 274 274 273 273 272 273 274 275 276 280 281 282 283 284 285 286 286 285 284 283 283 282
273 273 272 272 270 268 268 268 268 266 265 269 272 267 269 269 270 272 273 274 273 274 273 273 273 272 273 274 276 278 278 280 281 282 284 285 285 285 284 283 282 282 281
273 273 272 272 270 268 269 269 268 267 266 266 266 269 268 268 268 270 269 271 272 273 273 273 273 273 273 273 276 276 278 281 282 282 282 283 284 284 283 282 282 282 281
272 272 271 271 270 269 269 269 269 268 266 266 266 266 267 268 269 270 271 272 272 273 273 273 276 276 276 276 277 277 278 280 282 282 282 282 283 283 283 281 280 280 279
272 272 271 271 270 269 269 269 269 267 267 267 267 267 266 267 268 268 270 271 272 272 274 275 278 277 278 280 281 281 281 282 282 282 282 282 282 282 281 280 279 278 278
271 271 271 271 270 270 270 270 269 268 267 268 268 268 266 268 268 269 270 271 272 273 274 275 276 277 279 280 281 282 282 282 282 281 281 281 280 280 279 278 277 277 277
269 269 270 270 270 269 270 269 269 269 268 268 268 268 269 269 268 269 269 270 271 272 273 274 275 276 277 277 278 278 279 280 280 280 279 279 278 278 278 277 277 276 276
268 268 269 269 269 269 269 269 269 269 269 268 268 268 268 269 269 269 269 270 270 271 272 273 273 273 274 275 276 276 276 277 277 277 277 277 277 276 276 276 275 275 274
268 269 268 267 268 268 269 269 269 269 268 268 268 268 268 268 269 269 269 269 270 270 271 271 272 272 273 273 273 274 274 274 274 274 275 275 275 275 275 274 274 273 273
268 268 268 268 268 267 267 268 268 268 268 268 268 268 268 269 269 269 269 269 270 270 270 270 271 271 272 271 271 272 272 272 272 273 273 273 273 273 273 273 272 272 272
Wind_Speed
15 16 15 15 15 14 15 16 18 19 21 24 25 25 23 22 20 18 18 20 23 26 27 30 34 35 38 38 40 44 50 50 56 50 49 45 43 41 39 38 37 38 39
18 18 20 20 21 22 21 21 23 22 21 23 24 26 29 29 27 23 20 18 21 25 25 26 31 32 36 38 39 41 44 46 51 53 49 51 52 51 47 43 41 40 40
19 20 22 24 25 26 28 29 30 31 30 29 28 28 29 30 33 33 30 26 24 24 25 27 30 30 34 37 40 41 42 43 46 49 50 48 50 50 50 47 46 44 42
20 22 25 27 29 31 32 34 35 36 36 36 36 36 34 34 34 35 36 35 33 31 28 28 28 30 33 35 37 40 41 42 44 46 48 50 53 55 53 52 52 50 47
25 27 30 32 34 36 37 38 39 39 39 40 41 41 41 41 40 40 40 38 37 38 38 36 32 31 32 32 35 38 40 42 44 47 48 46 52 55 59 58 55 51 51
27 29 32 35 37 39 40 42 43 45 46 47 49 50 51 51 50 48 47 45 45 44 42 43 42 37 34 33 33 34 38 42 45 45 48 49 53 53 56 60 57 57 55
26 31 35 36 37 39 42 45 48 50 52 55 57 57 58 58 57 56 54 51 50 49 49 49 47 46 42 38 36 35 35 38 45 47 48 54 45 45 49 55 60 62 64
32 34 34 36 39 42 45 48 51 52 54 56 57 58 60 63 62 60 45 40 47 52 53 54 54 53 50 46 42 40 40 39 40 43 54 56 51 46 46 48 51 55 60
33 36 39 42 45 46 47 47 49 50 53 55 56 56 53 61 58 48 42 43 47 54 56 56 56 58 59 53 47 47 45 44 42 40 41 46 55 46 47 44 46 50 54
37 41 43 44 45 46 47 48 49 49 51 51 55 54 54 57 56 47 44 45 49 50 56 58 56 51 53 46 44 50 50 50 45 43 42 42 42 55 49 51 52 54 54
40 42 43 43 44 46 48 48 47 46 45 44 45 44 43 42 44 36 35 37 41 44 46 47 46 43 43 44 43 47 53 50 46 39 41 42 41 40 50 54 56 52 51
40 41 41 42 44 45 45 46 43 40 41 42 42 43 41 39 36 31 30 31 34 41 48 49 50 47 45 46 44 46 46 44 41 39 41 44 44 43 40 46 63 59 54
39 39 40 42 42 41 42 40 38 37 38 39 39 41 43 44 45 40 36 34 32 34 40 46 44 44 43 47 47 48 45 43 41 40 44 49 49 46 41 40 45 55 55
38 38 39 41 41 39 36 33 35 37 38 40 41 45 47 45 43 42 42 45 44 43 44 44 42 40 40 41 49 42 44 44 40 39 41 46 47 45 42 42 43 48 48
35 36 38 39 39 38 34 33 33 34 33 37 41 42 44 45 44 39 41 43 42 42 44 45 43 41 40 44 32 39 36 41 43 43 40 43 45 44 44 42 43 44 46
33 35 36 38 37 35 36 37 31 31 31 32 34 36 40 40 40 38 39 39 39 39 41 42 41 40 38 36 37 31 31 32 40 39 39 40 41 46 43 42 42 46 44
30 33 35 35 34 34 35 37 41 39 36 33 31 32 33 36 38 38 38 35 33 34 37 40 42 41 37 33 34 34 34 27 28 33 36 39 44 46 44 43 45 45 43
27 29 31 32 31 31 32 35 36 38 40 43 38 34 32 32 33 33 33 34 38 36 39 41 40 39 32 32 30 29 32 30 28 28 34 40 42 44 43 45 46 46 42
25 27 28 29 28 27 29 32 34 36 37 39 40 37 36 31 34 33 27 26 31 36 37 35 36 34 31 37 32 33 34 34 33 30 30 36 40 42 44 46 47 47 44
22 23 25 25 25 26 28 31 33 34 35 35 35 35 35 39 37 30 27 25 25 28 30 29 28 28 28 29 31 32 36 37 33 30 32 34 36 39 42 44 43 44 44
20 21 22 23 22 23 25 27 28 29 31 32 32 30 28 29 29 29 28 26 26 27 28 24 13 17 21 22 23 28 31 30 27 28 31 33 35 37 38 39 41 40 40
16 18 19 20 20 20 21 23 24 25 27 29 32 32 28 30 29 28 27 26 24 23 22 21 17 12 12 13 15 18 18 22 25 27 28 30 30 32 34 35 36 37 35
14 15 16 16 17 17 18 19 22 24 25 26 28 31 32 32 32 31 29 27 25 23 21 18 16 15 14 12 10 10 14 18 20 21 22 23 25 26 27 29 30 30 30
12 13 14 15 15 15 17 18 20 21 22 24 25 26 28 29 30 31 31 30 28 25 22 20 19 17 15 12 9 6 4 3 6 10 13 15 18 19 21 24 25 25 26
11 12 13 14 15 15 16 16 18 19 21 22 24 25 25 26 27 28 28 28 28 29 29 28 26 21 18 15 12 10 8 5 2 2 6 10 13 14 17 18 20 22 23
11 11 12 12 12 13 14 15 16 18 19 20 21 22 23 24 24 25 26 26 26 26 26 26 26 25 24 25 23 18 14 11 8 5 4 6 9 12 14 17 19 21 21
Wind_Direction
14 6 360 358 350 343 338 333 330 333 330 332 334 336 334 329 322 314 307 299 287 278 271 267 267 267 266 264 261 257 258 257 258 260 261 260 258 256 253 253 253 250 244
1 358 353 349 343 338 334 331 329 324 322 320 318 316 320 322 321 317 311 305 303 297 294 285 275 270 269 268 264 264 259 256 259 260 259 258 259 258 256 252 252 251 247
351 348 344 341 336 330 329 327 324 321 320 316 311 308 307 307 309 310 310 310 306 302 300 296 290 283 276 270 268 264 263 262 259 259 258 258 256 255 251 247 244 245 245
332 333 334 332 329 325 323 321 319 317 316 314 311 308 306 303 301 300 300 302 302 301 298 292 290 289 283 279 274 268 266 264 263 260 258 255 256 254 251 246 242 241 241
322 321 323 322 321 319 317 314 313 312 311 310 307 305 303 301 300 300 297 296 294 292 291 291 289 286 285 284 277 271 268 265 261 261 258 251 250 247 245 244 241 242 242
305 308 313 312 312 312 311 311 310 309 307 304 302 301 298 298 298 297 297 296 294 292 287 285 285 284 282 282 280 277 267 261 261 258 256 250 251 249 247 245 244 236 235
295 298 305 308 309 309 308 306 305 303 301 300 299 298 297 296 295 294 293 291 288 286 286 284 282 281 280 279 279 278 273 265 254 254 254 252 248 246 247 244 243 245 245
302 307 310 310 308 306 304 302 301 301 299 297 295 294 294 292 292 293 293 289 285 283 281 280 280 278 276 277 279 278 275 272 265 257 247 252 253 249 249 252 256 257 251
311 313 312 309 308 308 306 305 303 300 298 296 294 292 289 288 288 290 292 291 287 285 283 279 276 276 276 274 274 275 275 274 272 267 260 257 248 247 248 249 242 239 239
314 313 312 313 313 312 311 309 307 305 301 299 295 294 292 291 290 290 290 288 287 285 283 281 278 273 273 269 264 268 270 271 274 274 269 261 254 248 235 243 245 238 237
315 314 315 316 315 315 314 314 312 310 307 305 303 304 303 301 301 298 294 288 285 286 283 282 279 276 270 265 261 260 263 269 270 264 264 264 262 255 244 233 239 232 232
314 315 317 318 318 318 319 318 316 314 311 311 311 311 311 312 311 303 299 291 286 280 280 281 279 274 270 267 261 257 257 260 258 256 254 255 261 260 254 244 238 239 232
316 319 320 320 322 326 322 317 317 317 314 311 309 308 314 319 317 312 303 298 293 287 285 280 275 277 275 265 261 253 251 251 249 247 248 253 254 260 258 253 246 241 237
318 321 324 325 329 326 323 324 321 319 316 312 310 309 309 309 308 308 305 305 303 297 297 296 295 280 275 276 262 256 245 244 245 246 246 250 254 254 252 249 242 238 234
319 324 327 331 327 327 331 331 322 319 310 306 302 302 302 301 301 303 301 298 295 292 292 289 287 285 281 281 275 243 238 242 249 249 246 245 247 247 248 247 239 236 229
322 329 332 331 328 334 335 332 332 324 309 305 302 301 301 300 301 302 301 298 296 292 287 282 280 277 274 277 279 267 259 255 249 244 239 239 240 242 240 234 231 230 223
326 331 333 330 333 339 337 333 331 335 332 325 315 311 307 306 306 305 303 300 297 296 288 283 275 273 270 268 273 269 255 255 258 252 244 239 239 239 237 228 224 223 215
329 332 334 332 339 340 339 336 333 331 327 332 336 326 320 315 314 312 308 303 299 304 296 286 278 266 268 262 260 257 263 258 261 256 247 242 237 237 226 219 219 219 210
329 335 335 337 341 342 340 339 339 335 331 329 331 335 337 336 326 320 317 308 310 312 311 306 292 280 266 256 256 253 249 254 259 258 247 241 240 235 229 223 224 222 212
329 337 339 337 343 346 346 345 343 342 341 339 339 341 347 338 332 342 344 339 333 333 328 310 287 283 277 258 262 255 245 250 253 256 247 243 241 236 229 219 216 211 211
325 338 338 341 346 350 351 350 351 352 352 351 352 352 342 338 353 354 353 351 349 350 356 356 323 305 299 294 273 260 243 254 262 254 247 243 235 226 220 217 216 211 207
325 334 341 343 350 355 357 357 359 2 5 4 6 10 5 11 8 5 3 0 359 360 2 4 6 350 314 291 275 274 273 262 256 248 242 235 225 220 218 212 208 208 208
323 330 341 349 356 359 2 4 5 7 9 13 13 15 17 20 21 20 18 15 12 10 12 15 17 17 12 360 338 303 269 251 246 245 238 227 220 217 218 216 213 207 204
320 330 340 352 358 2 3 5 7 9 9 13 15 19 20 21 24 26 27 28 29 28 27 27 29 30 29 31 30 31 17 316 270 248 241 232 216 213 213 210 205 205 200
315 324 333 344 352 360 4 4 6 9 11 13 14 16 19 22 24 25 28 30 31 35 38 39 38 39 39 39 42 44 48 60 81 208 216 215 210 205 205 202 197 194 192
308 313 319 328 337 346 353 358 3 4 6 9 11 13 14 18 21 24 25 27 31 34 36 39 43 45 50 54 52 55 62 68 81 105 151 179 180 182 190 185 180 174 170